Weather History for Louisville, KY

Change the Weather History Date:

Saturday, November 30, 2013

  Actual Average Record
Temperature  
Mean Temperature 43 °F 43 °F  
Max Temperature 57 °F 51 °F 74 °F (2006)
Min Temperature 28 °F 34 °F 1 °F (1929)
Degree Days  
Heating Degree Days 22 22  
Month to date heating degree days 597 492  
Since 1 July heating degree days 830 735  
Cooling Degree Days 0 0  
Month to date cooling degree days 0 4  
Year to date cooling degree days 1628 1613  
Moisture  
Dew Point 25 °F    
Average Humidity 55    
Maximum Humidity 78    
Minimum Humidity 32    
Precipitation  
Precipitation 0.00 in 0.13 in 1.70 in (1998)
Month to date precipitation 3.72 3.59  
Year to date precipitation 48.17 41.08  
Snow  
Snow 0.00 in 0.00 in 1.80 in (1886)
Month to date snowfall 0.5 0.1  
Since 1 July snowfall 0.5 0.2  
Since 1 September snowfall 0.5 0.2  
Snow Depth 0.00 in    
Sea Level Pressure  
Sea Level Pressure 30.35 in    
Wind  
Wind Speed 5 mph (South)    
Max Wind Speed 15 mph    
Max Gust Speed 20 mph    
Visibility 10 miles    
Events      
T = Trace of Precipitation, MM = Missing Value Source: NWS Daily Summary

Daily Weather History Graph

Daily Weather History Graph

Search for Another Location

Airport:

Trip Planner

Search our weather history database for the weather conditions in past years. The results will help you decide how hot, cold, wet, or windy it might be!

Date:

Astronomy

Nov. 30, 2013 Rise Set
Actual Time 7:39 AM EST 5:23 PM EST
Civil Twilight 7:10 AM EST 5:52 PM EST
Nautical Twilight 6:38 AM EST 6:25 PM EST
Astronomical Twilight 6:06 AM EST 6:56 PM EST
Moon 4:52 AM EST (11/30) 3:45 PM EST (11/30)
Length of Visible Light 10h 41m
Length of Day
9h 43m
Waning Crescent, 7% of the Moon is Illuminated
Nov 30
Waning Crescent
Dec 2
New
Dec 9
First Quarter
Dec 17
Full
Dec 25
Last Quarter

Hourly Weather History & Observations

Time (EST) Temp. Windchill Dew Point Humidity Pressure Visibility Wind Dir Wind Speed Gust Speed Precip Events Conditions
12:56 AM 33.1 °F 30.0 °F 24.1 °F 70% 30.48 in 10.0 mi SSE 3.5 mph - N/A   Partly Cloudy
1:56 AM 32.0 °F - 23.0 °F 69% 30.47 in 10.0 mi Calm Calm - N/A   Scattered Clouds
2:56 AM 30.9 °F - 23.0 °F 72% 30.47 in 10.0 mi Calm Calm - N/A   Mostly Cloudy
3:56 AM 30.9 °F - 23.0 °F 72% 30.46 in 10.0 mi Calm Calm - N/A   Overcast
4:56 AM 32.0 °F - 24.1 °F 73% 30.45 in 10.0 mi Calm Calm - N/A   Mostly Cloudy
5:56 AM 30.0 °F - 24.1 °F 79% 30.44 in 10.0 mi Calm Calm - N/A   Mostly Cloudy
6:56 AM 28.9 °F 25.2 °F 23.0 °F 78% 30.44 in 10.0 mi SE 3.5 mph - N/A   Mostly Cloudy
7:56 AM 28.9 °F 25.2 °F 23.0 °F 78% 30.45 in 8.0 mi SE 3.5 mph - N/A   Scattered Clouds
8:56 AM 30.9 °F 27.5 °F 25.0 °F 79% 30.45 in 9.0 mi SSE 3.5 mph - N/A   Partly Cloudy
9:56 AM 36.0 °F - 26.1 °F 67% 30.44 in 9.0 mi Calm Calm - N/A   Partly Cloudy
10:56 AM 42.1 °F 39.2 °F 27.0 °F 55% 30.43 in 10.0 mi South 4.6 mph - N/A   Partly Cloudy
11:56 AM 48.9 °F - 27.0 °F 43% 30.39 in 10.0 mi SSW 3.5 mph - N/A   Partly Cloudy
12:56 PM 54.0 °F - 27.0 °F 35% 30.35 in 10.0 mi SW 8.1 mph - N/A   Partly Cloudy
1:56 PM 55.9 °F - 27.0 °F 33% 30.30 in 10.0 mi SSW 11.5 mph - N/A   Partly Cloudy
2:56 PM 55.9 °F - 27.0 °F 33% 30.27 in 10.0 mi SW 11.5 mph - N/A   Partly Cloudy
3:56 PM 55.9 °F - 27.0 °F 33% 30.25 in 10.0 mi South 12.7 mph - N/A   Clear
4:56 PM 54.0 °F - 25.0 °F 33% 30.24 in 10.0 mi SSW 8.1 mph - N/A   Partly Cloudy
5:56 PM 51.1 °F - 25.0 °F 36% 30.23 in 10.0 mi South 8.1 mph - N/A   Clear
6:56 PM 50.0 °F - 25.0 °F 38% 30.22 in 10.0 mi South 9.2 mph - N/A   Clear
7:56 PM 48.0 °F - 26.1 °F 42% 30.23 in 10.0 mi South 6.9 mph - N/A   Clear
8:56 PM 46.9 °F - 25.0 °F 42% 30.22 in 10.0 mi South 3.5 mph - N/A   Clear
9:56 PM 45.0 °F 41.8 °F 26.1 °F 48% 30.21 in 10.0 mi South 5.8 mph - N/A   Clear
10:56 PM 46.9 °F - 26.1 °F 44% 30.21 in 10.0 mi South 6.9 mph - N/A   Clear
11:56 PM 46.0 °F 43.1 °F 25.0 °F 44% 30.21 in 10.0 mi SSW 5.8 mph - N/A   Partly Cloudy